Frankfort, KY

10:33 AM EST on February 19, 2017 (GMT -0500)
Capital City

Weather History for KFFT - January, 2013

Change the Weather History Date:

Friday, January 25, 2013

  Actual Average Record
Temperature  
Mean Temperature 24 °F 33 °F  
Max Temperature 27 °F 42 °F 72 °F (1972)
Min Temperature 21 °F 24 °F -18 °F (1963)
Degree Days  
Heating Degree Days 41 32  
Month to date heating degree days 763 819  
Since 1 July heating degree days 2563 2651  
Cooling Degree Days 0 0  
Month to date cooling degree days 0 0  
Year to date cooling degree days 0 0  
Moisture  
Dew Point 18 °F    
Average Humidity 73    
Maximum Humidity 100    
Minimum Humidity 45    
Precipitation  
Precipitation T in 0.08 in 1.30 in (1997)
Month to date precipitation 3.52 2.67  
Year to date precipitation 3.52 2.67  
Sea Level Pressure  
Sea Level Pressure 30.16 in    
Wind  
Wind Speed 6 mph (SSE)    
Max Wind Speed 14 mph    
Max Gust Speed 17 mph    
Visibility 7 miles    
Events Snow    
T = Trace of Precipitation, MM = Missing Value Source: NWS Daily Summary

Daily Weather History Graph

Daily Weather History Graph

Search for Another Location

Airport or City:

Trip Planner

Search our weather history database for the weather conditions in past years. The results will help you decide how hot, cold, wet, or windy it might be!

Date:

Astronomy

Jan. 25, 2013 Rise Set
Actual Time 7:49 AM EST 5:54 PM EST
Civil Twilight 7:21 AM EST 6:23 PM EST
Nautical Twilight 6:49 AM EST 6:55 PM EST
Astronomical Twilight 6:18 AM EST 7:26 PM EST
Moon 4:51 PM EST (1/25) 6:28 AM EST (1/25)
Length of Visible Light 11h 01m
Length of Day
10h 05m
Waxing Gibbous, 98% of the Moon is Illuminated
Jan 25
Waxing Gibbous
Jan 26
Full
Feb 3
Last Quarter
Feb 10
New
Feb 17
First Quarter

Hourly Weather History & Observations

Time (EST) Temp. Windchill Dew Point Humidity Pressure Visibility Wind Dir Wind Speed Gust Speed Precip Events Conditions
12:53 AM 21.9 °F 11.7 °F 5.0 °F 48% 30.40 in 10.0 mi East 9.2 mph - N/A   Clear
1:53 AM 21.0 °F 11.4 °F 6.1 °F 53% 30.35 in 10.0 mi East 8.1 mph - N/A   Clear
2:53 AM 21.9 °F 17.2 °F 7.0 °F 53% 30.35 in 10.0 mi East 3.5 mph - N/A   Scattered Clouds
3:53 AM 21.9 °F 11.7 °F 7.0 °F 53% 30.30 in 10.0 mi East 9.2 mph - N/A   Overcast
4:53 AM 23.0 °F 13.9 °F 7.0 °F 50% 30.25 in 10.0 mi East 8.1 mph - N/A   Overcast
5:53 AM 23.0 °F 13.9 °F 7.0 °F 50% 30.24 in 10.0 mi East 8.1 mph - N/A   Overcast
6:53 AM 21.9 °F 12.5 °F 10.9 °F 63% 30.20 in 4.0 mi ESE 8.1 mph - 0.00 in Snow Light Snow
7:53 AM 21.9 °F 13.4 °F 12.9 °F 68% 30.16 in 10.0 mi ESE 6.9 mph - 0.00 in   Overcast
8:08 AM 21.2 °F 13.6 °F 12.2 °F 68% 30.13 in 10.0 mi ESE 5.8 mph - N/A   Overcast
8:53 AM 21.9 °F 14.5 °F 17.1 °F 82% 30.15 in 7.0 mi SE 5.8 mph - N/A   Overcast
9:30 AM 21.2 °F - 19.4 °F 93% 30.12 in 2.5 mi Calm Calm - N/A   Overcast
9:39 AM 21.2 °F - 19.4 °F 93% 30.13 in 4.0 mi Calm Calm - N/A   Overcast
9:51 AM 21.2 °F 16.4 °F 19.4 °F 93% 30.12 in 2.5 mi NNE 3.5 mph - N/A   Overcast
9:53 AM 21.9 °F 17.2 °F 19.0 °F 89% 30.16 in 2.0 mi NNE 3.5 mph - N/A   Overcast
9:57 AM 21.2 °F 16.4 °F 19.4 °F 93% 30.12 in 1.5 mi ENE 3.5 mph - N/A   Overcast
10:20 AM 21.2 °F 11.7 °F 21.2 °F 100% 30.08 in 2.0 mi SE 8.1 mph - N/A   Overcast
10:40 AM 21.2 °F 12.6 °F 21.2 °F 100% 30.08 in 4.0 mi SE 6.9 mph - N/A   Overcast
10:51 AM 21.2 °F - 21.2 °F 100% 30.10 in 6.0 mi Calm Calm - N/A   Overcast
10:53 AM 21.9 °F 17.2 °F 21.0 °F 96% 30.13 in 6.0 mi SSE 3.5 mph - N/A   Overcast
11:26 AM 23.0 °F - 21.2 °F 93% 30.10 in 7.0 mi Calm Calm - N/A   Overcast
11:53 AM 23.0 °F - 21.0 °F 92% 30.13 in 6.0 mi Calm Calm - N/A   Overcast
12:53 PM 24.1 °F 18.2 °F 21.9 °F 91% 30.12 in 5.0 mi NNW 4.6 mph - N/A   Overcast
1:53 PM 25.0 °F 20.7 °F 23.0 °F 92% 30.09 in 5.0 mi WSW 3.5 mph - N/A   Overcast
2:53 PM 27.0 °F 20.5 °F 24.1 °F 89% 30.09 in 7.0 mi West 5.8 mph - N/A   Overcast
3:10 PM 26.6 °F 18.2 °F 23.0 °F 86% 30.05 in 8.0 mi West 8.1 mph - N/A   Overcast
3:53 PM 27.0 °F 18.0 °F 23.0 °F 85% 30.10 in 8.0 mi WNW 9.2 mph - N/A   Overcast
4:53 PM 27.0 °F 21.6 °F 21.9 °F 81% 30.11 in 8.0 mi Variable 4.6 mph - N/A   Overcast
5:53 PM 27.0 °F 20.5 °F 23.0 °F 85% 30.12 in 6.0 mi WSW 5.8 mph - N/A   Overcast
6:53 PM 27.0 °F 21.6 °F 23.0 °F 85% 30.14 in 8.0 mi WSW 4.6 mph - N/A   Overcast
7:53 PM 27.0 °F 20.5 °F 23.0 °F 85% 30.15 in 9.0 mi WSW 5.8 mph - N/A   Overcast
8:53 PM 27.0 °F 18.7 °F 24.1 °F 89% 30.17 in 9.0 mi WSW 8.1 mph - N/A   Overcast
9:19 PM 26.6 °F 19.1 °F 24.8 °F 93% 30.14 in 9.0 mi SW 6.9 mph - N/A   Overcast
9:53 PM 26.1 °F 18.4 °F 23.0 °F 88% 30.18 in 8.0 mi WSW 6.9 mph - N/A   Mostly Cloudy
10:19 PM 24.8 °F 19.1 °F 21.2 °F 86% 30.15 in 7.0 mi SW 4.6 mph - N/A   Partly Cloudy
10:53 PM 23.0 °F 17.0 °F 21.0 °F 92% 30.20 in 6.0 mi SSW 4.6 mph - N/A   Clear
11:53 PM 23.0 °F 15.8 °F 21.9 °F 96% 30.20 in 5.0 mi SSW 5.8 mph - N/A   Clear